Home > Weather > Bolton > Past weeks

Flag for United Kingdom Weather for the Past 2 Weeks in Bolton, England, United Kingdom

Now
46 °F

Partly sunny.


Feels Like: 39 °F
Forecast: 33 / 47 °F
Wind: 18 mph from Northwest

Location: Manchester Airport

Current Time: Apr 29, 2016 at 4:08:14 PM

Latest Report: Apr 29, 2016 at 3:20 PM


Visibility: N/A

Pressure: 29.77 "Hg

Humidity: 66%

Dew Point: 36 °F

Location of BoltonLocation

Historic Weather in Bolton — Graph

°F

Bolton Temperature Yesterday

Maximum temperature yesterday: 46 °F (at 10:50 AM)
Minimum temperature yesterday: 30 °F (at 3:20 AM)
Average temperature yesterday: 38 °F

High & Low Weather Summary for the Past Weeks

 TemperatureHumidityPressure
High63 °F (Apr 21, 2:50 PM)100% (Apr 17, 5:50 AM)30.48 "Hg (Apr 17, 5:50 AM)
Low28 °F (Apr 17, 5:20 AM)31% (Apr 20, 2:50 PM)29.50 "Hg (Apr 15, 7:50 PM)
Average44 °F70%30.00 "Hg
* Reported Apr 14 2:20 PM — Apr 29 2:20 PM, Bolton, Weather by CustomWeather, © 2016

Note: Actual official high and low records may vary slightly from our data, if they occured in-between our weather recording intervals... More about our weather records

Advertising

Bolton Weather History for the Previous 24 Hours

Scroll right to see more
 ConditionsComfort  
Time TempWeatherWind HumidityBarometerVisibility
2:20 PM
Fri, Apr 29
45 °FBroken clouds.20 mph76%29.74 "HgN/A
1:50 PM43 °FBroken clouds.15 mph87%29.71 "HgN/A
1:20 PM41 °FBroken clouds.17 mph87%29.71 "HgN/A
12:50 PM37 °FCloudy.16 mph93%29.71 "Hg5 mi
12:20 PM39 °FBroken clouds.17 mph93%29.68 "HgN/A
11:50 AM37 °FLight rain. Broken clouds.18 mph93%29.68 "Hg4 mi
11:20 AM37 °FLight rain. Broken clouds.20 mph93%29.68 "Hg5 mi
10:50 AM37 °FLight rain. Partly sunny.20 mph93%29.68 "Hg5 mi
10:20 AM41 °FScattered showers. Broken clouds.18 mph76%29.65 "HgN/A
9:50 AM41 °FPartly sunny.22 mph81%29.65 "HgN/A
9:20 AM39 °FPartly sunny.20 mph81%29.65 "HgN/A
8:50 AM39 °FBroken clouds.21 mph87%29.65 "HgN/A
8:20 AM39 °FScattered showers. Broken clouds.17 mph87%29.65 "HgN/A
7:50 AM36 °FLight snow. Broken clouds.17 mph93%29.65 "HgN/A
7:20 AM34 °FBroken clouds.14 mph93%29.65 "HgN/A
6:50 AM36 °FBroken clouds.13 mph93%29.65 "HgN/A
6:20 AM34 °FPassing clouds.12 mph93%29.65 "HgN/A
5:50 AM34 °FSnow. Passing clouds.12 mph93%29.65 "Hg2 mi
5:20 AM36 °FLight snow. Partly cloudy.12 mph87%29.65 "HgN/A
4:50 AM34 °FPartly cloudy.12 mph93%29.65 "HgN/A
4:20 AM34 °FSnow flurries. Partly cloudy.8 mph93%29.65 "HgN/A
3:20 AM34 °FPassing clouds.12 mph93%29.65 "HgN/A
2:50 AM34 °FChilly.8 mph93%29.68 "HgN/A
2:20 AM34 °FPassing clouds.9 mph93%29.68 "HgN/A
1:50 AM36 °FSprinkles. Partly cloudy.16 mph93%29.68 "Hg4 mi
1:20 AM34 °FSprinkles. Passing clouds.10 mph93%29.68 "HgN/A
12:50 AM34 °FScattered showers. Passing clouds.8 mph93%29.68 "HgN/A
12:20 AM34 °FChilly.7 mph93%29.68 "HgN/A
11:20 PM
Thu, Apr 28
34 °FRain showers. Passing clouds.10 mph93%29.68 "Hg3 mi
10:50 PM36 °FRain showers. Passing clouds.6 mph93%29.68 "Hg6 mi
9:50 PM37 °FRain showers. Partly cloudy.9 mph93%29.68 "Hg5 mi
9:20 PM36 °FPassing clouds.6 mph93%29.68 "HgN/A
8:50 PM36 °FPassing clouds.5 mph93%29.68 "HgN/A
8:20 PM37 °FPassing clouds.7 mph93%29.68 "HgN/A
7:50 PM41 °FThundershowers. Scattered clouds.10 mph87%29.68 "HgN/A
7:20 PM41 °FPassing clouds.13 mph87%29.68 "HgN/A
6:50 PM41 °FPassing clouds.9 mph93%29.68 "HgN/A
6:20 PM41 °FPartly sunny.7 mph87%29.71 "HgN/A
5:50 PM39 °FLight rain. Partly sunny.9 mph93%29.71 "Hg6 mi
5:20 PM39 °FLight rain. Broken clouds.12 mph93%29.71 "Hg6 mi
4:50 PM39 °FRain. Partly sunny.14 mph93%29.71 "HgN/A
4:20 PM41 °FRain. Partly sunny.7 mph93%29.71 "Hg2 mi
Weather by CustomWeather, © 2016

See weather overviewHow to use our weather pages